Weather History for La Grande, OR

Change the Weather History Date:

Sunday, July 28, 2013

  Actual Average Record
Temperature  
Mean Temperature 66 °F -  
Max Temperature 84 °F 85 °F 101 °F (1968)
Min Temperature 48 °F 50 °F 42 °F (1986)
Cooling Degree Days 1    
Growing Degree Days 16 (Base 50)    
Moisture  
Dew Point 30 °F    
Average Humidity 27    
Maximum Humidity 43    
Minimum Humidity 14    
Precipitation  
Precipitation 0.00 in - - ()
Sea Level Pressure  
Sea Level Pressure 29.91 in    
Wind  
Wind Speed 5 mph (NNW)    
Max Wind Speed 16 mph    
Max Gust Speed 22 mph    
Visibility 10 miles    
Events      
Averages and records for this station are not official NWS values.
T = Trace of Precipitation, MM = Missing Value Source: NWS Daily Summary

Daily Weather History Graph

Daily Weather History Graph

Search for Another Location

Airport:

Trip Planner

Search our weather history database for the weather conditions in past years. The results will help you decide how hot, cold, wet, or windy it might be!

Date:

Astronomy

Jul. 28, 2013 Rise Set
Actual Time 5:32 AM PDT 8:23 PM PDT
Civil Twilight 4:57 AM PDT 8:58 PM PDT
Nautical Twilight 4:13 AM PDT 9:41 PM PDT
Astronomical Twilight 3:22 AM PDT 10:33 PM PDT
Moon 11:24 PM PDT (7/28) 12:42 PM PDT (7/28)
Length of Visible Light 16h 00m
Length of Day
14h 51m
Waning Gibbous, 60% of the Moon is Illuminated
Jul 28
Waning Gibbous
Jul 29
Last Quarter
Aug 6
New
Aug 14
First Quarter
Aug 20
Full

Hourly Weather History & Observations

Time (PDT) Temp. Dew Point Humidity Pressure Visibility Wind Dir Wind Speed Gust Speed Precip Events Conditions
12:15 AM 53.6 °F 24.8 °F 33% 29.93 in 10.0 mi Calm Calm - N/A   Clear
12:35 AM 55.4 °F 26.6 °F 33% 29.93 in 10.0 mi Calm Calm - N/A   Clear
12:55 AM 55.4 °F 26.6 °F 33% 29.93 in 10.0 mi North 3.5 mph - N/A   Clear
1:15 AM 55.4 °F 26.6 °F 33% 29.93 in 10.0 mi Calm Calm - N/A   Clear
1:35 AM 50.0 °F 24.8 °F 37% 29.93 in 10.0 mi Calm Calm - N/A   Clear
1:55 AM 51.8 °F 26.6 °F 38% 29.93 in 10.0 mi Calm Calm - N/A   Clear
2:15 AM 53.6 °F 26.6 °F 35% 29.93 in 10.0 mi Calm Calm - N/A   Clear
2:35 AM 51.8 °F 26.6 °F 38% 29.93 in 10.0 mi SSW 5.8 mph - N/A   Clear
2:55 AM 51.8 °F 28.4 °F 41% 29.92 in 10.0 mi East 4.6 mph - N/A   Clear
3:15 AM 48.2 °F 26.6 °F 43% 29.92 in 10.0 mi ESE 3.5 mph - N/A   Clear
3:35 AM 48.2 °F 26.6 °F 43% 29.92 in 10.0 mi Calm Calm - N/A   Clear
3:55 AM 48.2 °F 26.6 °F 43% 29.92 in 10.0 mi SE 4.6 mph - N/A   Clear
4:15 AM 48.2 °F 26.6 °F 43% 29.93 in 10.0 mi ESE 4.6 mph - N/A   Clear
4:35 AM 48.2 °F 26.6 °F 43% 29.93 in 10.0 mi NE 4.6 mph - N/A   Clear
4:55 AM 53.6 °F 28.4 °F 38% 29.93 in 10.0 mi WNW 13.8 mph - N/A   Clear
5:15 AM 60.8 °F 30.2 °F 31% 29.93 in 10.0 mi WNW 16.1 mph 21.9 mph N/A   Clear
5:35 AM 60.8 °F 30.2 °F 31% 29.93 in 10.0 mi West 13.8 mph - N/A   Clear
5:55 AM 60.8 °F 28.4 °F 29% 29.94 in 10.0 mi West 11.5 mph - N/A   Clear
6:15 AM 59.0 °F 28.4 °F 31% 29.94 in 10.0 mi NNE 4.6 mph - N/A   Clear
6:35 AM 48.2 °F 24.8 °F 40% 29.95 in 10.0 mi NE 6.9 mph - N/A   Clear
6:55 AM 53.6 °F 28.4 °F 38% 29.95 in 10.0 mi NE 6.9 mph - N/A   Clear
7:15 AM 53.6 °F 28.4 °F 38% 29.95 in 10.0 mi North 4.6 mph - N/A   Clear
7:35 AM 57.2 °F 30.2 °F 36% 29.95 in 10.0 mi Calm Calm - N/A   Clear
7:55 AM 62.6 °F 33.8 °F 34% 29.96 in 10.0 mi WNW 9.2 mph - N/A   Clear
8:15 AM 66.2 °F 30.2 °F 26% 29.96 in 10.0 mi North 5.8 mph - N/A   Clear
8:35 AM 64.4 °F 30.2 °F 28% 29.95 in 10.0 mi NNW 6.9 mph - N/A   Clear
8:55 AM 66.2 °F 30.2 °F 26% 29.95 in 10.0 mi North 5.8 mph - N/A   Clear
9:15 AM 69.8 °F 30.2 °F 23% 29.94 in 10.0 mi NNE 4.6 mph - N/A   Clear
9:35 AM 71.6 °F 30.2 °F 22% 29.94 in 10.0 mi Calm Calm - N/A   Clear
9:55 AM 73.4 °F 30.2 °F 20% 29.93 in 10.0 mi NW 6.9 mph - N/A   Clear
10:15 AM 73.4 °F 28.4 °F 19% 29.93 in 10.0 mi NNW 6.9 mph - N/A   Clear
10:35 AM 75.2 °F 30.2 °F 19% 29.92 in 10.0 mi NNW 6.9 mph - N/A   Clear
10:55 AM 77.0 °F 30.2 °F 18% 29.92 in 10.0 mi NW 4.6 mph - N/A   Clear
11:15 AM 75.2 °F 30.2 °F 19% 29.91 in 10.0 mi NE 5.8 mph - N/A   Clear
11:35 AM 78.8 °F 30.2 °F 17% 29.91 in 10.0 mi NNE 3.5 mph - N/A   Clear
11:55 AM 78.8 °F 30.2 °F 17% 29.91 in 10.0 mi ENE 3.5 mph - N/A   Clear
12:15 PM 80.6 °F 30.2 °F 16% 29.90 in 10.0 mi NNW 6.9 mph - N/A   Clear
12:35 PM 80.6 °F 30.2 °F 16% 29.89 in 10.0 mi NNE 3.5 mph - N/A   Clear
12:55 PM 82.4 °F 32.0 °F 16% 29.88 in 10.0 mi North 3.5 mph 16.1 mph N/A   Clear
1:15 PM 82.4 °F 32.0 °F 16% 29.88 in 10.0 mi NNE 4.6 mph - N/A   Clear
1:35 PM 84.2 °F 33.8 °F 16% 29.88 in 10.0 mi East 10.4 mph - N/A   Clear
1:55 PM 82.4 °F 33.8 °F 17% 29.87 in 10.0 mi North 6.9 mph - N/A   Clear
2:15 PM 82.4 °F 33.8 °F 17% 29.87 in 10.0 mi North 12.7 mph 16.1 mph N/A   Clear
2:35 PM 84.2 °F 33.8 °F 16% 29.87 in 10.0 mi NW 5.8 mph - N/A   Clear
2:55 PM 84.2 °F 30.2 °F 14% 29.87 in 10.0 mi NW 12.7 mph - N/A   Clear
3:15 PM 84.2 °F 30.2 °F 14% 29.86 in 10.0 mi North 5.8 mph - N/A   Clear
3:35 PM 84.2 °F 33.8 °F 16% 29.86 in 10.0 mi North 9.2 mph 18.4 mph N/A   Clear
3:55 PM 84.2 °F 33.8 °F 16% 29.86 in 10.0 mi NNW 12.7 mph - N/A   Clear
4:15 PM 84.2 °F 32.0 °F 15% 29.86 in 10.0 mi NW 10.4 mph - N/A   Clear
4:35 PM 84.2 °F 32.0 °F 15% 29.86 in 10.0 mi NNW 15.0 mph - N/A   Clear
4:55 PM 82.4 °F 33.8 °F 17% 29.86 in 10.0 mi NW 10.4 mph - N/A   Clear
5:15 PM 82.4 °F 33.8 °F 17% 29.86 in 10.0 mi NNW 11.5 mph 18.4 mph N/A   Clear
5:35 PM 82.4 °F 33.8 °F 17% 29.86 in 10.0 mi NW 12.7 mph 19.6 mph N/A   Clear
5:55 PM 80.6 °F 35.6 °F 20% 29.86 in 10.0 mi NW 15.0 mph - N/A   Clear
6:15 PM 80.6 °F 35.6 °F 20% 29.86 in 10.0 mi NW 12.7 mph - N/A   Clear
6:35 PM 78.8 °F 35.6 °F 21% 29.86 in 10.0 mi NNW 10.4 mph - N/A   Clear
6:55 PM 78.8 °F 33.8 °F 20% 29.87 in 10.0 mi NNW 9.2 mph - N/A   Clear
7:15 PM 77.0 °F 33.8 °F 21% 29.87 in 10.0 mi NW 12.7 mph - N/A   Clear
7:35 PM 75.2 °F 33.8 °F 22% 29.87 in 10.0 mi NNW 10.4 mph - N/A   Clear
7:55 PM 73.4 °F 33.8 °F 23% 29.88 in 10.0 mi NW 9.2 mph - N/A   Clear
8:15 PM 71.6 °F 33.8 °F 25% 29.88 in 10.0 mi NW 6.9 mph - N/A   Clear
8:35 PM 69.8 °F 32.0 °F 25% 29.88 in 10.0 mi WNW 5.8 mph - N/A   Clear
8:55 PM 68.0 °F 30.2 °F 24% 29.88 in 9.0 mi WNW 5.8 mph - N/A   Clear
9:15 PM 62.6 °F 30.2 °F 30% 29.89 in 10.0 mi Calm Calm - N/A   Clear
9:35 PM 64.4 °F 30.2 °F 28% 29.89 in 10.0 mi Calm Calm - N/A   Clear
9:55 PM 62.6 °F 30.2 °F 30% 29.90 in 10.0 mi SW 5.8 mph - N/A   Clear
10:15 PM 60.8 °F 30.2 °F 31% 29.90 in 10.0 mi WSW 6.9 mph - N/A   Clear
10:35 PM 57.2 °F 30.2 °F 36% 29.90 in 10.0 mi East 4.6 mph - N/A   Clear
10:55 PM 55.4 °F 28.4 °F 36% 29.90 in 10.0 mi Calm Calm - N/A   Clear
11:15 PM 55.4 °F 28.4 °F 36% 29.90 in 10.0 mi Calm Calm - N/A   Clear
11:35 PM 57.2 °F 28.4 °F 33% 29.90 in 10.0 mi West 5.8 mph - N/A   Clear
11:55 PM 53.6 °F 28.4 °F 38% 29.91 in 10.0 mi East 8.1 mph - N/A   Clear